FOX-1CLIFF (AO-95)

Last updated on Wed Sep 09 2026 00:03:15 GMT+0000 (Coordinated Universal Time)

1 43770U 18099N 26250.81401513 .00009242 00000+0 33763-3 0 9997 2 43770 97.4311 310.8122 0009608 62.4208 297.8007 15.28284077425839
UTC large
Height (km)
Speed (km/s)
/
Latitude / Longitude
Inclination (degrees)
Orbital Period (minutes)
Azimuth
Elevation
Range (km)
Doppler Factor

Next 0 passes for location: London (51.5072 / 0.1276)

No passes found over London.
FOX-1CLIFF (AO-95)